^^
Marion, Virginia Banner
 

Adwolf, VA. Station Historical Data
[ Providing Data Since 6/07/2007 ]
Station Historical Data
Daily Summary for March 21, 2017 Units:  Both    English   Metric
« Previous Day
Next Day »
Daily Weekly Monthly Yearly Custom
  High: Low: Average:
Temperature: 73.3 °F /  22.9 °C 49.4 °F /  9.7 °C 58.9 °F /  14.9 °C
Dew Point: 54.2 °F /  12.3 °C 39.6 °F /  4.2 °C 47.3 °F /  8.5 °C
Humidity: 82% 46% 66%
Wind Speed: 13.8mph /  22.2km/h - 5.4mph /  8.7km/h
Wind Gust: 13.8mph /  22.2km/h - -
Wind- - SW
Pressure: 30.10 in /  1019.2 hPa 29.85 in /  1010.7 hPa -
Precipitation: 0.00 in /  0 mm    
Historical Graphs
 
 
Tabular Data for March 21, 2017
Time Temperature Dew Point Pressure Wind Wind Speed Wind Gust Humidity Rainfall Rate (Hourly) solar Conditions
00:04 50.3 °F /  10.2 °C 43.7 °F /  6.5 °C 30.10in /  1019.2hPa Calm     78% 0.00in /  0mm WeatherDisplay:10.37 W/m2 RA
00:09 50.2 °F /  10.1 °C 43.6 °F /  6.4 °C 30.10in /  1019.2hPa Calm     78% 0.00in /  0mm WeatherDisplay:10.37 W/m2 RA
00:14 50.2 °F /  10.1 °C 42.9 °F /  6.1 °C 30.09in /  1018.8hPa Calm     76% 0.00in /  0mm WeatherDisplay:10.37 W/m2 OVC
00:19 50.3 °F /  10.2 °C 43.0 °F /  6.1 °C 30.09in /  1018.8hPa Calm     76% 0.00in /  0mm WeatherDisplay:10.37 W/m2 OVC
00:24 50.3 °F /  10.2 °C 43.3 °F /  6.3 °C 30.09in /  1018.8hPa Calm     77% 0.00in /  0mm WeatherDisplay:10.37 W/m2 OVC
00:29 50.3 °F /  10.2 °C 43.3 °F /  6.3 °C 30.09in /  1018.8hPa Calm     77% 0.00in /  0mm WeatherDisplay:10.37 W/m2 OVC
00:34 50.2 °F /  10.1 °C 44.6 °F /  7 °C 30.08in /  1018.5hPa ESE 1.0mph /  1.6km/h 1.0mph /  1.6km/h 81% 0.00in /  0mm WeatherDisplay:10.37 W/m2 OVC
00:39 50.0 °F /  10 °C 43.4 °F /  6.3 °C 30.08in /  1018.5hPa ESE 1.2mph /  1.9km/h 1.2mph /  1.9km/h 78% 0.00in /  0mm WeatherDisplay:10.37 W/m2 OVC
00:44 50.0 °F /  10 °C 43.4 °F /  6.3 °C 30.08in /  1018.5hPa Calm     78% 0.00in /  0mm WeatherDisplay:10.37 W/m2 OVC
00:49 49.9 °F /  9.9 °C 42.9 °F /  6.1 °C 30.08in /  1018.5hPa Calm     77% 0.00in /  0mm WeatherDisplay:10.37 W/m2 OVC
00:54 49.9 °F /  9.9 °C 43.3 °F /  6.3 °C 30.08in /  1018.5hPa ESE 1.2mph /  1.9km/h 1.2mph /  1.9km/h 78% 0.00in /  0mm WeatherDisplay:10.37 W/m2 OVC
00:59 49.9 °F /  9.9 °C 43.6 °F /  6.4 °C 30.08in /  1018.5hPa Calm     79% 0.00in /  0mm WeatherDisplay:10.37 W/m2 OVC
01:04 49.9 °F /  9.9 °C 43.9 °F /  6.6 °C 30.08in /  1018.5hPa Calm     80% 0.00in /  0mm WeatherDisplay:10.37 W/m2 OVC
01:09 49.8 °F /  9.9 °C 43.8 °F /  6.6 °C 30.07in /  1018.2hPa Calm     80% 0.00in /  0mm WeatherDisplay:10.37 W/m2 OVC
01:14 49.7 °F /  9.8 °C 43.7 °F /  6.5 °C 30.07in /  1018.2hPa ESE 1.2mph /  1.9km/h 1.2mph /  1.9km/h 80% 0.00in /  0mm WeatherDisplay:10.37 W/m2 OVC
01:19 49.6 °F /  9.8 °C 43.6 °F /  6.4 °C 30.07in /  1018.2hPa Calm     80% 0.00in /  0mm WeatherDisplay:10.37 W/m2 OVC
01:24 49.7 °F /  9.8 °C 44.1 °F /  6.7 °C 30.07in /  1018.2hPa ESE 1.2mph /  1.9km/h 1.2mph /  1.9km/h 81% 0.00in /  0mm WeatherDisplay:10.37 W/m2 OVC
01:29 49.6 °F /  9.8 °C 44.3 °F /  6.8 °C 30.07in /  1018.2hPa ESE 1.2mph /  1.9km/h 1.2mph /  1.9km/h 82% 0.00in /  0mm WeatherDisplay:10.37 W/m2 OVC
01:34 49.6 °F /  9.8 °C 44.0 °F /  6.7 °C 30.06in /  1017.8hPa Calm     81% 0.00in /  0mm WeatherDisplay:10.37 W/m2 OVC
01:39 49.6 °F /  9.8 °C 44.0 °F /  6.7 °C 30.06in /  1017.8hPa Calm     81% 0.00in /  0mm WeatherDisplay:10.37 W/m2 OVC
01:44 49.6 °F /  9.8 °C 44.3 °F /  6.8 °C 30.06in /  1017.8hPa Calm     82% 0.00in /  0mm WeatherDisplay:10.37 W/m2 OVC
01:49 49.5 °F /  9.7 °C 43.9 °F /  6.6 °C 30.06in /  1017.8hPa Calm     81% 0.00in /  0mm WeatherDisplay:10.37 W/m2 OVC
01:50 49.5 °F /  9.7 °C 43.9 °F /  6.6 °C 30.06in /  1017.8hPa Calm   1.0mph /  1.6km/h 81% 0.00in /  0mm WeatherDisplay:10.37 W/m2 OVC
01:55 49.5 °F /  9.7 °C 44.2 °F /  6.8 °C 30.06in /  1017.8hPa Calm     82% 0.00in /  0mm WeatherDisplay:10.37 W/m2 OVC
02:00 49.4 °F /  9.7 °C 44.1 °F /  6.7 °C 30.06in /  1017.8hPa ESE 1.2mph /  1.9km/h 1.2mph /  1.9km/h 82% 0.00in /  0mm WeatherDisplay:10.37 W/m2 OVC
02:05 49.5 °F /  9.7 °C 43.2 °F /  6.2 °C 30.06in /  1017.8hPa ESE 1.2mph /  1.9km/h 1.2mph /  1.9km/h 79% 0.00in /  0mm WeatherDisplay:10.37 W/m2 OVC
02:10 49.6 °F /  9.8 °C 43.0 °F /  6.1 °C 30.05in /  1017.5hPa ESE 2.3mph /  3.7km/h 2.3mph /  3.7km/h 78% 0.00in /  0mm WeatherDisplay:10.37 W/m2 OVC
02:15 49.7 °F /  9.8 °C 42.1 °F /  5.6 °C 30.04in /  1017.2hPa ESE 2.3mph /  3.7km/h 2.3mph /  3.7km/h 75% 0.00in /  0mm WeatherDisplay:10.37 W/m2 OVC
02:20 49.9 °F /  9.9 °C 41.5 °F /  5.3 °C 30.04in /  1017.2hPa South 3.5mph /  5.6km/h 3.5mph /  5.6km/h 73% 0.00in /  0mm WeatherDisplay:10.37 W/m2 OVC
02:25 50.0 °F /  10 °C 41.3 °F /  5.2 °C 30.04in /  1017.2hPa SW 3.5mph /  5.6km/h 3.5mph /  5.6km/h 72% 0.00in /  0mm WeatherDisplay:10.37 W/m2 OVC
02:30 50.2 °F /  10.1 °C 41.1 °F /  5.1 °C 30.04in /  1017.2hPa WSW 3.5mph /  5.6km/h 3.5mph /  5.6km/h 71% 0.00in /  0mm WeatherDisplay:10.37 W/m2 OVC
02:35 50.5 °F /  10.3 °C 40.7 °F /  4.8 °C 30.03in /  1016.8hPa SW 4.6mph /  7.4km/h 4.6mph /  7.4km/h 69% 0.00in /  0mm WeatherDisplay:10.37 W/m2 OVC
02:40 50.9 °F /  10.5 °C 40.7 °F /  4.8 °C 30.03in /  1016.8hPa WSW 3.5mph /  5.6km/h 3.5mph /  5.6km/h 68% 0.00in /  0mm WeatherDisplay:10.37 W/m2 OVC
02:45 51.0 °F /  10.6 °C 40.4 °F /  4.7 °C 30.03in /  1016.8hPa WSW 3.5mph /  5.6km/h 3.5mph /  5.6km/h 67% 0.00in /  0mm WeatherDisplay:10.37 W/m2 OVC
02:50 51.0 °F /  10.6 °C 40.8 °F /  4.9 °C 30.03in /  1016.8hPa SW 5.8mph /  9.3km/h 5.8mph /  9.3km/h 68% 0.00in /  0mm WeatherDisplay:10.37 W/m2 OVC
02:55 51.1 °F /  10.6 °C 40.9 °F /  4.9 °C 30.03in /  1016.8hPa WSW 5.0mph /  8km/h 5.0mph /  8km/h 68% 0.00in /  0mm WeatherDisplay:10.37 W/m2 OVC
03:00 51.0 °F /  10.6 °C 40.8 °F /  4.9 °C 30.02in /  1016.5hPa SW 6.9mph /  11.1km/h 6.9mph /  11.1km/h 68% 0.00in /  0mm WeatherDisplay:10.37 W/m2 OVC
03:05 51.1 °F /  10.6 °C 40.1 °F /  4.5 °C 30.02in /  1016.5hPa West 6.9mph /  11.1km/h 6.9mph /  11.1km/h 66% 0.00in /  0mm WeatherDisplay:10.37 W/m2 BKN
03:10 51.0 °F /  10.6 °C 40.0 °F /  4.4 °C 30.02in /  1016.5hPa SW 4.6mph /  7.4km/h 4.6mph /  7.4km/h 66% 0.00in /  0mm WeatherDisplay:10.37 W/m2 BKN
03:15 51.1 °F /  10.6 °C 39.7 °F /  4.3 °C 30.02in /  1016.5hPa WSW 3.5mph /  5.6km/h 3.5mph /  5.6km/h 65% 0.00in /  0mm WeatherDisplay:10.37 W/m2 BKN
03:20 51.0 °F /  10.6 °C 39.6 °F /  4.2 °C 30.02in /  1016.5hPa SSW 4.0mph /  6.4km/h 4.0mph /  6.4km/h 65% 0.00in /  0mm WeatherDisplay:10.37 W/m2 BKN
03:25 51.0 °F /  10.6 °C 39.6 °F /  4.2 °C 30.02in /  1016.5hPa WSW 3.5mph /  5.6km/h 3.5mph /  5.6km/h 65% 0.00in /  0mm WeatherDisplay:10.37 W/m2 OVC
03:30 51.1 °F /  10.6 °C 39.7 °F /  4.3 °C 30.02in /  1016.5hPa SW 2.3mph /  3.7km/h 2.3mph /  3.7km/h 65% 0.00in /  0mm WeatherDisplay:10.37 W/m2 OVC
03:35 51.3 °F /  10.7 °C 40.7 °F /  4.8 °C 30.02in /  1016.5hPa West 2.3mph /  3.7km/h 2.3mph /  3.7km/h 67% 0.00in /  0mm WeatherDisplay:10.37 W/m2 OVC
03:40 51.1 °F /  10.6 °C 42.3 °F /  5.7 °C 30.01in /  1016.1hPa SE 3.0mph /  4.8km/h 3.0mph /  4.8km/h 72% 0.00in /  0mm WeatherDisplay:10.37 W/m2 OVC
03:45 50.7 °F /  10.4 °C 43.0 °F /  6.1 °C 30.01in /  1016.1hPa SSW 2.3mph /  3.7km/h 2.3mph /  3.7km/h 75% 0.00in /  0mm WeatherDisplay:10.37 W/m2 -RA
03:50 50.7 °F /  10.4 °C 42.7 °F /  5.9 °C 30.01in /  1016.1hPa SW 3.5mph /  5.6km/h 3.5mph /  5.6km/h 74% 0.00in /  0mm WeatherDisplay:10.37 W/m2 -RA
03:55 50.6 °F /  10.3 °C 41.9 °F /  5.5 °C 30.01in /  1016.1hPa SW 4.6mph /  7.4km/h 4.6mph /  7.4km/h 72% 0.00in /  0mm WeatherDisplay:10.37 W/m2 -RA
04:00 50.5 °F /  10.3 °C 42.1 °F /  5.6 °C 30.00in /  1015.8hPa WSW 3.5mph /  5.6km/h 3.5mph /  5.6km/h 73% 0.00in /  0mm WeatherDisplay:10.37 W/m2 -RA
04:05 50.6 °F /  10.3 °C 41.9 °F /  5.5 °C 30.01in /  1016.1hPa SW 5.8mph /  9.3km/h 5.8mph /  9.3km/h 72% 0.00in /  0mm WeatherDisplay:10.37 W/m2 OVC
04:10 51.4 °F /  10.8 °C 42.3 °F /  5.7 °C 30.01in /  1016.1hPa SSW 6.9mph /  11.1km/h 6.9mph /  11.1km/h 71% 0.00in /  0mm WeatherDisplay:10.37 W/m2 OVC
04:15 52.2 °F /  11.2 °C 42.3 °F /  5.7 °C 30.01in /  1016.1hPa SSW 9.2mph /  14.8km/h 9.2mph /  14.8km/h 69% 0.00in /  0mm WeatherDisplay:10.37 W/m2 OVC
04:20 52.7 °F /  11.5 °C 42.4 °F /  5.8 °C 30.01in /  1016.1hPa WSW 6.9mph /  11.1km/h 6.9mph /  11.1km/h 68% 0.00in /  0mm WeatherDisplay:10.37 W/m2 OVC
04:25 52.8 °F /  11.6 °C 42.1 °F /  5.6 °C 30.01in /  1016.1hPa West 5.8mph /  9.3km/h 5.8mph /  9.3km/h 67% 0.00in /  0mm WeatherDisplay:10.37 W/m2 OVC
04:30 52.8 °F /  11.6 °C 42.1 °F /  5.6 °C 30.01in /  1016.1hPa SW 5.0mph /  8km/h 5.0mph /  8km/h 67% 0.00in /  0mm WeatherDisplay:10.37 W/m2 OVC
04:35 52.7 °F /  11.5 °C 42.0 °F /  5.6 °C 30.01in /  1016.1hPa SSW 8.1mph /  13km/h 8.1mph /  13km/h 67% 0.00in /  0mm WeatherDisplay:10.37 W/m2 OVC
04:40 52.7 °F /  11.5 °C 42.0 °F /  5.6 °C 30.01in /  1016.1hPa WSW 5.8mph /  9.3km/h 5.8mph /  9.3km/h 67% 0.00in /  0mm WeatherDisplay:10.37 W/m2 OVC
04:45 52.6 °F /  11.4 °C 42.3 °F /  5.7 °C 30.01in /  1016.1hPa West 6.9mph /  11.1km/h 6.9mph /  11.1km/h 68% 0.00in /  0mm WeatherDisplay:10.37 W/m2 OVC
04:50 52.7 °F /  11.5 °C 42.4 °F /  5.8 °C 30.00in /  1015.8hPa West 8.1mph /  13km/h 8.1mph /  13km/h 68% 0.00in /  0mm WeatherDisplay:10.37 W/m2 OVC
04:55 52.8 °F /  11.6 °C 42.9 °F /  6.1 °C 30.00in /  1015.8hPa West 8.1mph /  13km/h 8.1mph /  13km/h 69% 0.00in /  0mm WeatherDisplay:10.37 W/m2 OVC
05:00 52.8 °F /  11.6 °C 42.9 °F /  6.1 °C 30.00in /  1015.8hPa West 9.2mph /  14.8km/h 9.2mph /  14.8km/h 69% 0.00in /  0mm WeatherDisplay:10.37 W/m2 OVC
05:05 53.1 °F /  11.7 °C 43.2 °F /  6.2 °C 30.00in /  1015.8hPa SSW 8.1mph /  13km/h 8.1mph /  13km/h 69% 0.00in /  0mm WeatherDisplay:10.37 W/m2 OVC
05:10 53.3 °F /  11.8 °C 43.3 °F /  6.3 °C 30.00in /  1015.8hPa WSW 9.2mph /  14.8km/h 9.2mph /  14.8km/h 69% 0.00in /  0mm WeatherDisplay:10.37 W/m2 OVC
05:15 53.3 °F /  11.8 °C 43.3 °F /  6.3 °C 30.01in /  1016.1hPa WSW 9.2mph /  14.8km/h 9.2mph /  14.8km/h 69% 0.00in /  0mm WeatherDisplay:10.37 W/m2 OVC
05:20 53.3 °F /  11.8 °C 43.3 °F /  6.3 °C 30.00in /  1015.8hPa SW 10.4mph /  16.7km/h 10.4mph /  16.7km/h 69% 0.00in /  0mm WeatherDisplay:10.37 W/m2 OVC
05:25 53.4 °F /  11.9 °C 43.4 °F /  6.3 °C 30.00in /  1015.8hPa West 10.4mph /  16.7km/h 10.4mph /  16.7km/h 69% 0.00in /  0mm WeatherDisplay:10.37 W/m2 OVC
05:30 53.4 °F /  11.9 °C 43.4 °F /  6.3 °C 30.00in /  1015.8hPa West 3.5mph /  5.6km/h 3.5mph /  5.6km/h 69% 0.00in /  0mm WeatherDisplay:10.37 W/m2 OVC
05:35 53.4 °F /  11.9 °C 43.8 °F /  6.6 °C 30.01in /  1016.1hPa SW 8.1mph /  13km/h 8.1mph /  13km/h 70% 0.00in /  0mm WeatherDisplay:10.37 W/m2 OVC
05:40 53.6 °F /  12 °C 43.6 °F /  6.4 °C 30.01in /  1016.1hPa SSW 9.2mph /  14.8km/h 9.2mph /  14.8km/h 69% 0.00in /  0mm WeatherDisplay:10.37 W/m2 OVC
05:45 53.9 °F /  12.2 °C 43.9 °F /  6.6 °C 30.00in /  1015.8hPa SSW 13.8mph /  22.2km/h 13.8mph /  22.2km/h 69% 0.00in /  0mm WeatherDisplay:10.37 W/m2 OVC
05:50 54.0 °F /  12.2 °C 44.0 °F /  6.7 °C 30.01in /  1016.1hPa WSW 9.2mph /  14.8km/h 9.2mph /  14.8km/h 69% 0.00in /  0mm WeatherDisplay:10.37 W/m2 OVC
05:55 54.0 °F /  12.2 °C 44.0 °F /  6.7 °C 30.01in /  1016.1hPa SW 12.7mph /  20.4km/h 12.7mph /  20.4km/h 69% 0.00in /  0mm WeatherDisplay:10.37 W/m2 OVC
06:00 54.0 °F /  12.2 °C 44.0 °F /  6.7 °C 30.01in /  1016.1hPa SW 9.2mph /  14.8km/h 9.2mph /  14.8km/h 69% 0.00in /  0mm WeatherDisplay:10.37 W/m2 OVC
06:05 54.0 °F /  12.2 °C 44.4 °F /  6.9 °C 30.01in /  1016.1hPa SW 10.4mph /  16.7km/h 10.4mph /  16.7km/h 70% 0.00in /  0mm WeatherDisplay:10.37 W/m2 OVC
06:10 53.9 °F /  12.2 °C 44.3 °F /  6.8 °C 30.01in /  1016.1hPa WSW 11.0mph /  17.7km/h 11.0mph /  17.7km/h 70% 0.00in /  0mm WeatherDisplay:10.37 W/m2 OVC
06:15 53.7 °F /  12.1 °C 44.1 °F /  6.7 °C 30.01in /  1016.1hPa SSW 9.2mph /  14.8km/h 9.2mph /  14.8km/h 70% 0.00in /  0mm WeatherDisplay:10.37 W/m2 OVC
06:20 53.6 °F /  12 °C 44.4 °F /  6.9 °C 30.00in /  1015.8hPa WSW 8.1mph /  13km/h 8.1mph /  13km/h 71% 0.00in /  0mm WeatherDisplay:10.37 W/m2 OVC
06:25 53.5 °F /  11.9 °C 44.7 °F /  7.1 °C 30.00in /  1015.8hPa WSW 10.4mph /  16.7km/h 10.4mph /  16.7km/h 72% 0.00in /  0mm WeatherDisplay:10.37 W/m2 OVC
06:30 53.4 °F /  11.9 °C 44.6 °F /  7 °C 30.01in /  1016.1hPa WSW 11.5mph /  18.5km/h 11.5mph /  18.5km/h 72% 0.00in /  0mm WeatherDisplay:10.37 W/m2 OVC
06:35 53.2 °F /  11.8 °C 44.7 °F /  7.1 °C 30.01in /  1016.1hPa West 10.4mph /  16.7km/h 10.4mph /  16.7km/h 73% 0.00in /  0mm WeatherDisplay:10.37 W/m2 OVC
06:40 53.2 °F /  11.8 °C 44.7 °F /  7.1 °C 30.01in /  1016.1hPa SSW 10.4mph /  16.7km/h 10.4mph /  16.7km/h 73% 0.00in /  0mm WeatherDisplay:10.37 W/m2 OVC
06:45 53.2 °F /  11.8 °C 44.7 °F /  7.1 °C 30.01in /  1016.1hPa WSW 10.4mph /  16.7km/h 10.4mph /  16.7km/h 73% 0.00in /  0mm WeatherDisplay:10.37 W/m2 OVC
06:50 53.2 °F /  11.8 °C 44.7 °F /  7.1 °C 30.01in /  1016.1hPa SW 9.0mph /  14.5km/h 9.0mph /  14.5km/h 73% 0.00in /  0mm WeatherDisplay:10.37 W/m2 OVC
06:55 53.2 °F /  11.8 °C 44.7 °F /  7.1 °C 30.01in /  1016.1hPa WSW 8.1mph /  13km/h 8.1mph /  13km/h 73% 0.00in /  0mm WeatherDisplay:10.37 W/m2 OVC
07:00 53.1 °F /  11.7 °C 44.6 °F /  7 °C 30.02in /  1016.5hPa West 9.2mph /  14.8km/h 9.2mph /  14.8km/h 73% 0.00in /  0mm WeatherDisplay:10.37 W/m2 OVC
07:05 52.9 °F /  11.6 °C 44.8 °F /  7.1 °C 30.02in /  1016.5hPa SW 6.9mph /  11.1km/h 6.9mph /  11.1km/h 74% 0.00in /  0mm WeatherDisplay:10.37 W/m2 OVC
07:10 52.8 °F /  11.6 °C 44.7 °F /  7.1 °C 30.02in /  1016.5hPa SW 6.9mph /  11.1km/h 6.9mph /  11.1km/h 74% 0.00in /  0mm WeatherDisplay:10.37 W/m2 OVC
07:15 52.7 °F /  11.5 °C 44.6 °F /  7 °C 30.02in /  1016.5hPa SW 6.9mph /  11.1km/h 6.9mph /  11.1km/h 74% 0.00in /  0mm WeatherDisplay:10.37 W/m2 OVC
07:20 52.9 °F /  11.6 °C 44.4 °F /  6.9 °C 30.02in /  1016.5hPa SSW 6.9mph /  11.1km/h 6.9mph /  11.1km/h 73% 0.00in /  0mm WeatherDisplay:10.37 W/m2 OVC
07:25 53.0 °F /  11.7 °C 44.5 °F /  6.9 °C 30.02in /  1016.5hPa SSW 8.0mph /  12.9km/h 8.0mph /  12.9km/h 73% 0.00in /  0mm WeatherDisplay:10.37 W/m2 OVC
07:30 53.1 °F /  11.7 °C 44.6 °F /  7 °C 30.02in /  1016.5hPa WSW 5.8mph /  9.3km/h 5.8mph /  9.3km/h 73% 0.00in /  0mm WeatherDisplay:10.37 W/m2 OVC
07:35 53.1 °F /  11.7 °C 44.6 °F /  7 °C 30.02in /  1016.5hPa West 5.8mph /  9.3km/h 5.8mph /  9.3km/h 73% 0.00in /  0mm WeatherDisplay:10.37 W/m2 OVC
07:40 53.1 °F /  11.7 °C 44.6 °F /  7 °C 30.03in /  1016.8hPa WSW 7.0mph /  11.3km/h 7.0mph /  11.3km/h 73% 0.00in /  0mm WeatherDisplay:10.37 W/m2 OVC
07:45 53.1 °F /  11.7 °C 44.6 °F /  7 °C 30.03in /  1016.8hPa WSW 3.5mph /  5.6km/h 3.5mph /  5.6km/h 73% 0.00in /  0mm WeatherDisplay:10.37 W/m2 OVC
07:50 53.0 °F /  11.7 °C 44.5 °F /  6.9 °C 30.03in /  1016.8hPa WSW 3.5mph /  5.6km/h 3.5mph /  5.6km/h 73% 0.00in /  0mm WeatherDisplay:10.37 W/m2 OVC
07:55 53.1 °F /  11.7 °C 44.6 °F /  7 °C 30.03in /  1016.8hPa WSW 3.5mph /  5.6km/h 3.5mph /  5.6km/h 73% 0.00in /  0mm WeatherDisplay:10.37 W/m2 OVC
08:00 53.0 °F /  11.7 °C 44.9 °F /  7.2 °C 30.03in /  1016.8hPa WSW 2.0mph /  3.2km/h 2.0mph /  3.2km/h 74% 0.00in /  0mm WeatherDisplay:10.37 W/m2 OVC
08:05 53.0 °F /  11.7 °C 44.9 °F /  7.2 °C 30.03in /  1016.8hPa WSW 2.3mph /  3.7km/h 2.3mph /  3.7km/h 74% 0.00in /  0mm WeatherDisplay:10.37 W/m2 OVC
08:10 52.9 °F /  11.6 °C 44.8 °F /  7.1 °C 30.03in /  1016.8hPa WSW 2.0mph /  3.2km/h 2.0mph /  3.2km/h 74% 0.00in /  0mm WeatherDisplay:10.37 W/m2 OVC
08:15 53.0 °F /  11.7 °C 44.9 °F /  7.2 °C 30.04in /  1017.2hPa WSW 3.5mph /  5.6km/h 3.5mph /  5.6km/h 74% 0.00in /  0mm WeatherDisplay:10.37 W/m2 OVC
08:20 53.0 °F /  11.7 °C 44.9 °F /  7.2 °C 30.04in /  1017.2hPa WSW 1.2mph /  1.9km/h 1.2mph /  1.9km/h 74% 0.00in /  0mm WeatherDisplay:10.37 W/m2 OVC
08:25 53.0 °F /  11.7 °C 45.2 °F /  7.3 °C 30.04in /  1017.2hPa WSW 1.2mph /  1.9km/h 1.2mph /  1.9km/h 75% 0.00in /  0mm WeatherDisplay:10.37 W/m2 OVC
08:30 53.0 °F /  11.7 °C 44.9 °F /  7.2 °C 30.04in /  1017.2hPa WSW 1.2mph /  1.9km/h 1.2mph /  1.9km/h 74% 0.00in /  0mm WeatherDisplay:10.37 W/m2 OVC
08:35 53.0 °F /  11.7 °C 45.2 °F /  7.3 °C 30.04in /  1017.2hPa Calm     75% 0.00in /  0mm WeatherDisplay:10.37 W/m2 OVC
08:40 52.9 °F /  11.6 °C 44.8 °F /  7.1 °C 30.04in /  1017.2hPa Calm     74% 0.00in /  0mm WeatherDisplay:10.37 W/m2 OVC
08:45 52.9 °F /  11.6 °C 44.8 °F /  7.1 °C 30.04in /  1017.2hPa WSW 1.0mph /  1.6km/h 1.0mph /  1.6km/h 74% 0.00in /  0mm WeatherDisplay:10.37 W/m2 OVC
08:50 52.9 °F /  11.6 °C 45.2 °F /  7.3 °C 30.04in /  1017.2hPa WSW 1.2mph /  1.9km/h 1.2mph /  1.9km/h 75% 0.00in /  0mm WeatherDisplay:10.37 W/m2 OVC
08:55 53.0 °F /  11.7 °C 44.5 °F /  6.9 °C 30.04in /  1017.2hPa WSW 2.3mph /  3.7km/h 2.3mph /  3.7km/h 73% 0.00in /  0mm WeatherDisplay:10.37 W/m2 OVC
09:00 53.1 °F /  11.7 °C 45.0 °F /  7.2 °C 30.04in /  1017.2hPa WSW 1.2mph /  1.9km/h 1.2mph /  1.9km/h 74% 0.00in /  0mm WeatherDisplay:10.37 W/m2 OVC
09:05 53.1 °F /  11.7 °C 45.0 °F /  7.2 °C 30.04in /  1017.2hPa WSW 2.3mph /  3.7km/h 2.3mph /  3.7km/h 74% 0.00in /  0mm WeatherDisplay:10.37 W/m2 OVC
09:10 53.1 °F /  11.7 °C 45.0 °F /  7.2 °C 30.04in /  1017.2hPa WSW 1.0mph /  1.6km/h 1.0mph /  1.6km/h 74% 0.00in /  0mm WeatherDisplay:10.37 W/m2 OVC
09:15 53.2 °F /  11.8 °C 45.1 °F /  7.3 °C 30.04in /  1017.2hPa Calm     74% 0.00in /  0mm WeatherDisplay:10.37 W/m2 OVC
09:20 53.3 °F /  11.8 °C 45.2 °F /  7.3 °C 30.04in /  1017.2hPa WSW 1.2mph /  1.9km/h   74% 0.00in /  0mm WeatherDisplay:10.37 W/m2 OVC
09:25 53.4 °F /  11.9 °C 45.3 °F /  7.4 °C 30.04in /  1017.2hPa WSW 1.2mph /  1.9km/h 1.2mph /  1.9km/h 74% 0.00in /  0mm WeatherDisplay:10.37 W/m2 OVC
09:30 53.5 °F /  11.9 °C 45.0 °F /  7.2 °C 30.04in /  1017.2hPa West 2.0mph /  3.2km/h 2.0mph /  3.2km/h 73% 0.00in /  0mm WeatherDisplay:10.37 W/m2 OVC
09:35 53.6 °F /  12 °C 45.5 °F /  7.5 °C 30.04in /  1017.2hPa West 1.2mph /  1.9km/h 1.2mph /  1.9km/h 74% 0.00in /  0mm WeatherDisplay:10.37 W/m2 OVC
09:40 53.7 °F /  12.1 °C 45.2 °F /  7.3 °C 30.04in /  1017.2hPa West 2.3mph /  3.7km/h 2.3mph /  3.7km/h 73% 0.00in /  0mm WeatherDisplay:10.37 W/m2 OVC
09:45 53.9 °F /  12.2 °C 45.8 °F /  7.7 °C 30.05in /  1017.5hPa West 2.3mph /  3.7km/h 2.3mph /  3.7km/h 74% 0.00in /  0mm WeatherDisplay:10.37 W/m2 BKN
09:50 54.1 °F /  12.3 °C 45.2 °F /  7.3 °C 30.05in /  1017.5hPa West 1.2mph /  1.9km/h 1.2mph /  1.9km/h 72% 0.00in /  0mm WeatherDisplay:10.37 W/m2 BKN
09:55 54.4 °F /  12.4 °C 45.5 °F /  7.5 °C 30.05in /  1017.5hPa West 1.2mph /  1.9km/h   72% 0.00in /  0mm WeatherDisplay:10.37 W/m2 BKN
10:00 54.6 °F /  12.6 °C 45.7 °F /  7.6 °C 30.05in /  1017.5hPa West 1.2mph /  1.9km/h 1.2mph /  1.9km/h 72% 0.00in /  0mm WeatherDisplay:10.37 W/m2 BKN
10:05 54.9 °F /  12.7 °C 45.6 °F /  7.6 °C 30.05in /  1017.5hPa West 2.3mph /  3.7km/h 2.3mph /  3.7km/h 71% 0.00in /  0mm WeatherDisplay:10.37 W/m2 BKN
10:10 55.1 °F /  12.8 °C 45.4 °F /  7.4 °C 30.06in /  1017.8hPa WNW 2.3mph /  3.7km/h 2.3mph /  3.7km/h 70% 0.00in /  0mm WeatherDisplay:10.37 W/m2 BKN
10:15 55.3 °F /  12.9 °C 45.6 °F /  7.6 °C 30.06in /  1017.8hPa WNW 2.3mph /  3.7km/h 2.3mph /  3.7km/h 70% 0.00in /  0mm WeatherDisplay:10.37 W/m2 BKN
10:20 55.4 °F /  13 °C 45.7 °F /  7.6 °C 30.06in /  1017.8hPa WNW 2.0mph /  3.2km/h 2.0mph /  3.2km/h 70% 0.00in /  0mm WeatherDisplay:10.37 W/m2 BKN
10:25 55.5 °F /  13.1 °C 45.8 °F /  7.7 °C 30.06in /  1017.8hPa WNW 1.2mph /  1.9km/h 1.2mph /  1.9km/h 70% 0.00in /  0mm WeatherDisplay:10.37 W/m2 OVC
10:30 55.7 °F /  13.2 °C 45.6 °F /  7.6 °C 30.06in /  1017.8hPa WNW 2.3mph /  3.7km/h 2.3mph /  3.7km/h 69% 0.00in /  0mm WeatherDisplay:10.37 W/m2 OVC
10:35 55.8 °F /  13.2 °C 45.4 °F /  7.4 °C 30.05in /  1017.5hPa WNW 2.0mph /  3.2km/h 2.0mph /  3.2km/h 68% 0.00in /  0mm WeatherDisplay:10.37 W/m2 OVC
10:40 56.0 °F /  13.3 °C 45.9 °F /  7.7 °C 30.05in /  1017.5hPa Calm     69% 0.00in /  0mm WeatherDisplay:10.37 W/m2 OVC
10:45 56.4 °F /  13.6 °C 46.7 °F /  8.2 °C 30.06in /  1017.8hPa Calm     70% 0.00in /  0mm WeatherDisplay:10.37 W/m2 OVC
10:50 56.9 °F /  13.8 °C 46.8 °F /  8.2 °C 30.05in /  1017.5hPa Calm     69% 0.00in /  0mm WeatherDisplay:10.37 W/m2 OVC
10:55 57.1 °F /  13.9 °C 46.6 °F /  8.1 °C 30.05in /  1017.5hPa WNW 3.5mph /  5.6km/h 3.5mph /  5.6km/h 68% 0.00in /  0mm WeatherDisplay:10.37 W/m2 OVC
11:00 57.3 °F /  14.1 °C 46.8 °F /  8.2 °C 30.06in /  1017.8hPa WNW 2.3mph /  3.7km/h 2.3mph /  3.7km/h 68% 0.00in /  0mm WeatherDisplay:10.37 W/m2 OVC
11:05 57.6 °F /  14.2 °C 47.1 °F /  8.4 °C 30.05in /  1017.5hPa WNW 3.5mph /  5.6km/h 3.5mph /  5.6km/h 68% 0.00in /  0mm WeatherDisplay:10.37 W/m2 OVC
11:10 58.1 °F /  14.5 °C 47.6 °F /  8.7 °C 30.05in /  1017.5hPa SSW 3.5mph /  5.6km/h 3.5mph /  5.6km/h 68% 0.00in /  0mm WeatherDisplay:10.37 W/m2 OVC
11:15 58.6 °F /  14.8 °C 48.0 °F /  8.9 °C 30.05in /  1017.5hPa WSW 3.0mph /  4.8km/h 3.0mph /  4.8km/h 68% 0.00in /  0mm WeatherDisplay:10.37 W/m2 OVC
11:20 59.2 °F /  15.1 °C 47.8 °F /  8.8 °C 30.05in /  1017.5hPa SSW 5.0mph /  8km/h 5.0mph /  8km/h 66% 0.00in /  0mm WeatherDisplay:10.37 W/m2 OVC
11:25 59.5 °F /  15.3 °C 48.1 °F /  8.9 °C 30.05in /  1017.5hPa WSW 6.9mph /  11.1km/h 6.9mph /  11.1km/h 66% 0.00in /  0mm WeatherDisplay:10.37 W/m2 OVC
11:30 59.8 °F /  15.4 °C 48.4 °F /  9.1 °C 30.05in /  1017.5hPa SSE 9.0mph /  14.5km/h 9.0mph /  14.5km/h 66% 0.00in /  0mm WeatherDisplay:10.37 W/m2 OVC
11:35 60.1 °F /  15.6 °C 48.7 °F /  9.3 °C 30.06in /  1017.8hPa SSW 6.9mph /  11.1km/h 6.9mph /  11.1km/h 66% 0.00in /  0mm WeatherDisplay:10.37 W/m2 OVC
11:40 60.3 °F /  15.7 °C 48.4 °F /  9.1 °C 30.05in /  1017.5hPa WSW 8.1mph /  13km/h 8.1mph /  13km/h 65% 0.00in /  0mm WeatherDisplay:10.37 W/m2 OVC
11:45 60.4 °F /  15.8 °C 48.5 °F /  9.2 °C 30.05in /  1017.5hPa WSW 5.8mph /  9.3km/h 5.8mph /  9.3km/h 65% 0.00in /  0mm WeatherDisplay:10.37 W/m2 OVC
11:50 60.5 °F /  15.8 °C 48.6 °F /  9.2 °C 30.05in /  1017.5hPa WSW 5.8mph /  9.3km/h 5.8mph /  9.3km/h 65% 0.00in /  0mm WeatherDisplay:10.37 W/m2 OVC
11:55 60.7 °F /  15.9 °C 49.2 °F /  9.6 °C 30.05in /  1017.5hPa West 6.9mph /  11.1km/h 6.9mph /  11.1km/h 66% 0.00in /  0mm WeatherDisplay:10.37 W/m2 OVC
12:00 60.9 °F /  16.1 °C 49.4 °F /  9.7 °C 30.05in /  1017.5hPa West 7.0mph /  11.3km/h 7.0mph /  11.3km/h 66% 0.00in /  0mm WeatherDisplay:10.37 W/m2 OVC
12:05 61.1 °F /  16.2 °C 49.6 °F /  9.8 °C 30.05in /  1017.5hPa WSW 8.1mph /  13km/h 8.1mph /  13km/h 66% 0.00in /  0mm WeatherDisplay:10.37 W/m2 OVC
12:10 61.3 °F /  16.3 °C 49.4 °F /  9.7 °C 30.05in /  1017.5hPa WSW 5.8mph /  9.3km/h 5.8mph /  9.3km/h 65% 0.00in /  0mm WeatherDisplay:10.37 W/m2 OVC
12:15 61.6 °F /  16.4 °C 50.1 °F /  10.1 °C 30.05in /  1017.5hPa West 6.9mph /  11.1km/h 6.9mph /  11.1km/h 66% 0.00in /  0mm WeatherDisplay:10.37 W/m2 OVC
12:20 61.7 °F /  16.5 °C 50.2 °F /  10.1 °C 30.05in /  1017.5hPa WSW 8.1mph /  13km/h 8.1mph /  13km/h 66% 0.00in /  0mm WeatherDisplay:10.37 W/m2 OVC
12:25 61.7 °F /  16.5 °C 50.2 °F /  10.1 °C 30.05in /  1017.5hPa West 6.0mph /  9.7km/h 6.0mph /  9.7km/h 66% 0.00in /  0mm WeatherDisplay:10.37 W/m2 OVC
12:30 61.8 °F /  16.6 °C 50.7 °F /  10.4 °C 30.05in /  1017.5hPa WSW 6.9mph /  11.1km/h 6.9mph /  11.1km/h 67% 0.00in /  0mm WeatherDisplay:10.37 W/m2 OVC
12:35 61.8 °F /  16.6 °C 50.7 °F /  10.4 °C 30.05in /  1017.5hPa WSW 6.9mph /  11.1km/h 6.9mph /  11.1km/h 67% 0.00in /  0mm WeatherDisplay:10.37 W/m2 OVC
12:40 62.0 °F /  16.7 °C 50.9 °F /  10.5 °C 30.04in /  1017.2hPa West 6.9mph /  11.1km/h 6.9mph /  11.1km/h 67% 0.00in /  0mm WeatherDisplay:10.37 W/m2 OVC
12:41 62.1 °F /  16.7 °C 51.0 °F /  10.6 °C 30.04in /  1017.2hPa West 3.5mph /  5.6km/h 3.5mph /  5.6km/h 67% 0.00in /  0mm WeatherDisplay:10.37 W/m2 OVC
12:46 62.5 °F /  16.9 °C 51.8 °F /  11 °C 30.04in /  1017.2hPa WNW 3.5mph /  5.6km/h 3.5mph /  5.6km/h 68% 0.00in /  0mm WeatherDisplay:10.37 W/m2 OVC
12:51 62.9 °F /  17.2 °C 51.7 °F /  10.9 °C 30.04in /  1017.2hPa WSW 4.0mph /  6.4km/h 4.0mph /  6.4km/h 67% 0.00in /  0mm WeatherDisplay:10.37 W/m2 OVC
12:56 63.2 °F /  17.3 °C 52.0 °F /  11.1 °C 30.04in /  1017.2hPa West 6.9mph /  11.1km/h 6.9mph /  11.1km/h 67% 0.00in /  0mm WeatherDisplay:10.37 W/m2 OVC
13:01 63.3 °F /  17.4 °C 52.1 °F /  11.2 °C 30.04in /  1017.2hPa WSW 8.1mph /  13km/h 8.1mph /  13km/h 67% 0.00in /  0mm WeatherDisplay:10.37 W/m2 OVC
13:06 63.5 °F /  17.5 °C 52.3 °F /  11.3 °C 30.03in /  1016.8hPa WSW 5.8mph /  9.3km/h 5.8mph /  9.3km/h 67% 0.00in /  0mm WeatherDisplay:10.37 W/m2 OVC
13:11 63.9 °F /  17.7 °C 53.1 °F /  11.7 °C 30.03in /  1016.8hPa West 5.8mph /  9.3km/h 5.8mph /  9.3km/h 68% 0.00in /  0mm WeatherDisplay:10.37 W/m2 OVC
13:16 63.9 °F /  17.7 °C 52.7 °F /  11.5 °C 30.03in /  1016.8hPa WSW 9.2mph /  14.8km/h 9.2mph /  14.8km/h 67% 0.00in /  0mm WeatherDisplay:10.37 W/m2 OVC
13:21 64.1 °F /  17.8 °C 52.9 °F /  11.6 °C 30.04in /  1017.2hPa SW 4.0mph /  6.4km/h 4.0mph /  6.4km/h 67% 0.00in /  0mm WeatherDisplay:10.37 W/m2 OVC
13:26 64.5 °F /  18.1 °C 52.8 °F /  11.6 °C 30.03in /  1016.8hPa WSW 7.0mph /  11.3km/h 7.0mph /  11.3km/h 66% 0.00in /  0mm WeatherDisplay:10.37 W/m2 OVC
13:31 64.9 °F /  18.3 °C 53.2 °F /  11.8 °C 30.03in /  1016.8hPa SW 8.1mph /  13km/h 8.1mph /  13km/h 66% 0.00in /  0mm WeatherDisplay:10.37 W/m2 OVC
13:36 65.6 °F /  18.7 °C 53.5 °F /  11.9 °C 30.03in /  1016.8hPa SW 7.0mph /  11.3km/h 7.0mph /  11.3km/h 65% 0.00in /  0mm WeatherDisplay:10.37 W/m2 OVC
13:41 66.2 °F /  19 °C 53.2 °F /  11.8 °C 30.03in /  1016.8hPa WSW 11.5mph /  18.5km/h 11.5mph /  18.5km/h 63% 0.00in /  0mm WeatherDisplay:10.37 W/m2 OVC
13:46 66.1 °F /  18.9 °C 52.7 °F /  11.5 °C 30.03in /  1016.8hPa West 11.5mph /  18.5km/h 11.5mph /  18.5km/h 62% 0.00in /  0mm WeatherDisplay:10.37 W/m2 OVC
13:51 66.3 °F /  19.1 °C 53.3 °F /  11.8 °C 30.03in /  1016.8hPa SW 5.0mph /  8km/h 5.0mph /  8km/h 63% 0.00in /  0mm WeatherDisplay:10.37 W/m2 OVC
13:56 66.9 °F /  19.4 °C 53.9 °F /  12.2 °C 30.02in /  1016.5hPa SW 5.8mph /  9.3km/h 5.8mph /  9.3km/h 63% 0.00in /  0mm WeatherDisplay:10.37 W/m2 OVC
14:01 67.3 °F /  19.6 °C 53.3 °F /  11.8 °C 30.02in /  1016.5hPa South 7.0mph /  11.3km/h 7.0mph /  11.3km/h 61% 0.00in /  0mm WeatherDisplay:10.37 W/m2 OVC
14:06 67.3 °F /  19.6 °C 52.9 °F /  11.6 °C 30.02in /  1016.5hPa SSW 10.4mph /  16.7km/h 10.4mph /  16.7km/h 60% 0.00in /  0mm WeatherDisplay:10.37 W/m2 OVC
14:11 67.3 °F /  19.6 °C 53.3 °F /  11.8 °C 30.02in /  1016.5hPa SW 8.0mph /  12.9km/h 8.0mph /  12.9km/h 61% 0.00in /  0mm WeatherDisplay:10.37 W/m2 OVC
14:16 67.1 °F /  19.5 °C 53.6 °F /  12 °C 30.01in /  1016.1hPa South 11.0mph /  17.7km/h 11.0mph /  17.7km/h 62% 0.00in /  0mm WeatherDisplay:10.37 W/m2 OVC
14:21 67.2 °F /  19.6 °C 53.7 °F /  12.1 °C 30.01in /  1016.1hPa WSW 7.0mph /  11.3km/h 7.0mph /  11.3km/h 62% 0.00in /  0mm WeatherDisplay:10.37 W/m2 OVC
14:26 67.3 °F /  19.6 °C 53.3 °F /  11.8 °C 30.01in /  1016.1hPa SSE 6.9mph /  11.1km/h 6.9mph /  11.1km/h 61% 0.00in /  0mm WeatherDisplay:10.37 W/m2 OVC
14:31 67.3 °F /  19.6 °C 52.9 °F /  11.6 °C 30.01in /  1016.1hPa North 6.9mph /  11.1km/h 6.9mph /  11.1km/h 60% 0.00in /  0mm WeatherDisplay:10.37 W/m2 OVC
14:36 67.4 °F /  19.7 °C 53.4 °F /  11.9 °C 30.00in /  1015.8hPa WNW 4.6mph /  7.4km/h 4.6mph /  7.4km/h 61% 0.00in /  0mm WeatherDisplay:10.37 W/m2 OVC
14:41 67.9 °F /  19.9 °C 53.5 °F /  11.9 °C 30.00in /  1015.8hPa WSW 6.9mph /  11.1km/h 6.9mph /  11.1km/h 60% 0.00in /  0mm WeatherDisplay:10.37 W/m2 OVC
14:46 68.0 °F /  20 °C 53.6 °F /  12 °C 30.00in /  1015.8hPa SW 4.6mph /  7.4km/h 4.6mph /  7.4km/h 60% 0.00in /  0mm WeatherDisplay:10.37 W/m2 OVC
14:51 68.7 °F /  20.4 °C 54.2 °F /  12.3 °C 29.99in /  1015.5hPa WSW 5.8mph /  9.3km/h 5.8mph /  9.3km/h 60% 0.00in /  0mm WeatherDisplay:10.37 W/m2 OVC
14:56 69.2 °F /  20.7 °C 53.8 °F /  12.1 °C 29.99in /  1015.5hPa WSW 8.1mph /  13km/h 8.1mph /  13km/h 58% 0.00in /  0mm WeatherDisplay:10.37 W/m2 OVC
15:01 69.4 °F /  20.8 °C 53.0 °F /  11.7 °C 29.99in /  1015.5hPa WSW 11.5mph /  18.5km/h 11.5mph /  18.5km/h 56% 0.00in /  0mm WeatherDisplay:10.37 W/m2 OVC
15:06 69.9 °F /  21.1 °C 53.4 °F /  11.9 °C 29.99in /  1015.5hPa WNW 8.1mph /  13km/h 8.1mph /  13km/h 56% 0.00in /  0mm WeatherDisplay:10.37 W/m2 OVC
15:11 70.3 °F /  21.3 °C 53.8 °F /  12.1 °C 29.98in /  1015.1hPa West 9.0mph /  14.5km/h 9.0mph /  14.5km/h 56% 0.00in /  0mm WeatherDisplay:10.37 W/m2 BKN
15:16 70.3 °F /  21.3 °C 52.8 °F /  11.6 °C 29.98in /  1015.1hPa NW 11.5mph /  18.5km/h 11.5mph /  18.5km/h 54% 0.00in /  0mm WeatherDisplay:10.37 W/m2 BKN
15:21 70.5 °F /  21.4 °C 53.5 °F /  11.9 °C 29.98in /  1015.1hPa WNW 8.1mph /  13km/h 8.1mph /  13km/h 55% 0.00in /  0mm WeatherDisplay:10.37 W/m2 BKN
15:26 70.5 °F /  21.4 °C 53.0 °F /  11.7 °C 29.98in /  1015.1hPa SSW 6.0mph /  9.7km/h 6.0mph /  9.7km/h 54% 0.00in /  0mm WeatherDisplay:10.37 W/m2 BKN
15:31 70.6 °F /  21.4 °C 53.6 °F /  12 °C 29.98in /  1015.1hPa West 9.2mph /  14.8km/h 9.2mph /  14.8km/h 55% 0.00in /  0mm WeatherDisplay:10.37 W/m2 BKN
15:36 70.5 °F /  21.4 °C 53.5 °F /  11.9 °C 29.97in /  1014.8hPa WSW 10.4mph /  16.7km/h 10.4mph /  16.7km/h 55% 0.00in /  0mm WeatherDisplay:10.37 W/m2 BKN
15:41 71.0 °F /  21.7 °C 54.0 °F /  12.2 °C 29.97in /  1014.8hPa WSW 8.1mph /  13km/h 8.1mph /  13km/h 55% 0.00in /  0mm WeatherDisplay:10.37 W/m2 SCT
15:46 71.0 °F /  21.7 °C 53.5 °F /  11.9 °C 29.97in /  1014.8hPa WNW 8.1mph /  13km/h 8.1mph /  13km/h 54% 0.00in /  0mm WeatherDisplay:10.37 W/m2 SCT
15:51 71.1 °F /  21.7 °C 53.1 °F /  11.7 °C 29.97in /  1014.8hPa SW 6.9mph /  11.1km/h 6.9mph /  11.1km/h 53% 0.00in /  0mm WeatherDisplay:10.37 W/m2 SCT
15:56 70.7 °F /  21.5 °C 53.2 °F /  11.8 °C 29.96in /  1014.4hPa WSW 10.4mph /  16.7km/h 10.4mph /  16.7km/h 54% 0.00in /  0mm WeatherDisplay:10.37 W/m2 SCT
16:01 70.1 °F /  21.2 °C 52.6 °F /  11.4 °C 29.96in /  1014.4hPa NW 4.0mph /  6.4km/h 4.0mph /  6.4km/h 54% 0.00in /  0mm WeatherDisplay:10.37 W/m2 CLR
16:06 70.4 °F /  21.3 °C 52.9 °F /  11.6 °C 29.96in /  1014.4hPa WSW 5.8mph /  9.3km/h 5.8mph /  9.3km/h 54% 0.00in /  0mm WeatherDisplay:10.37 W/m2 CLR
16:11 71.4 °F /  21.9 °C 53.3 °F /  11.8 °C 29.96in /  1014.4hPa SSW 8.1mph /  13km/h 8.1mph /  13km/h 53% 0.00in /  0mm WeatherDisplay:10.37 W/m2 CLR
16:16 72.2 °F /  22.3 °C 53.0 °F /  11.7 °C 29.96in /  1014.4hPa SW 10.0mph /  16.1km/h 10.0mph /  16.1km/h 51% 0.00in /  0mm WeatherDisplay:10.37 W/m2 CLR
16:21 72.0 °F /  22.2 °C 52.8 °F /  11.6 °C 29.95in /  1014.1hPa WSW 6.9mph /  11.1km/h 6.9mph /  11.1km/h 51% 0.00in /  0mm WeatherDisplay:10.37 W/m2 CLR
16:26 72.5 °F /  22.5 °C 53.3 °F /  11.8 °C 29.95in /  1014.1hPa SW 6.9mph /  11.1km/h 6.9mph /  11.1km/h 51% 0.00in /  0mm WeatherDisplay:10.37 W/m2 CLR
16:31 73.3 °F /  22.9 °C 52.9 °F /  11.6 °C 29.95in /  1014.1hPa WSW 11.5mph /  18.5km/h 11.5mph /  18.5km/h 49% 0.00in /  0mm WeatherDisplay:10.37 W/m2 CLR
16:36 72.9 °F /  22.7 °C 52.0 °F /  11.1 °C 29.95in /  1014.1hPa SW 6.9mph /  11.1km/h 6.9mph /  11.1km/h 48% 0.00in /  0mm WeatherDisplay:10.37 W/m2 CLR
16:42 72.8 °F /  22.7 °C 52.5 °F /  11.4 °C 29.95in /  1014.1hPa SSW 6.9mph /  11.1km/h 6.9mph /  11.1km/h 49% 0.00in /  0mm WeatherDisplay:10.37 W/m2 CLR
16:47 72.7 °F /  22.6 °C 52.4 °F /  11.3 °C 29.95in /  1014.1hPa West 6.9mph /  11.1km/h 6.9mph /  11.1km/h 49% 0.00in /  0mm WeatherDisplay:10.37 W/m2 CLR
16:52 72.2 °F /  22.3 °C 52.5 °F /  11.4 °C 29.95in /  1014.1hPa SW 9.2mph /  14.8km/h 9.2mph /  14.8km/h 50% 0.00in /  0mm WeatherDisplay:10.37 W/m2 CLR
16:57 72.4 °F /  22.4 °C 52.1 °F /  11.2 °C 29.95in /  1014.1hPa WSW 5.8mph /  9.3km/h 5.8mph /  9.3km/h 49% 0.00in /  0mm WeatherDisplay:10.37 W/m2 CLR
17:02 72.6 °F /  22.6 °C 51.7 °F /  10.9 °C 29.95in /  1014.1hPa West 3.5mph /  5.6km/h 4.8mph /  7.7km/h 48% 0.00in /  0mm WeatherDisplay:10.37 W/m2 CLR
17:07 72.7 °F /  22.6 °C 51.8 °F /  11 °C 29.95in /  1014.1hPa West 6.9mph /  11.1km/h 6.9mph /  11.1km/h 48% 0.00in /  0mm WeatherDisplay:10.37 W/m2 CLR
17:12 72.9 °F /  22.7 °C 50.9 °F /  10.5 °C 29.95in /  1014.1hPa West 6.9mph /  11.1km/h 6.9mph /  11.1km/h 46% 0.00in /  0mm WeatherDisplay:10.37 W/m2 CLR
17:17 72.9 °F /  22.7 °C 50.9 °F /  10.5 °C 29.94in /  1013.8hPa West 4.6mph /  7.4km/h 4.6mph /  7.4km/h 46% 0.00in /  0mm WeatherDisplay:10.37 W/m2 CLR
17:22 73.0 °F /  22.8 °C 51.0 °F /  10.6 °C 29.94in /  1013.8hPa West 7.0mph /  11.3km/h 7.0mph /  11.3km/h 46% 0.00in /  0mm WeatherDisplay:10.37 W/m2 CLR
17:27 72.8 °F /  22.7 °C 50.8 °F /  10.4 °C 29.94in /  1013.8hPa SW 6.9mph /  11.1km/h 6.9mph /  11.1km/h 46% 0.00in /  0mm WeatherDisplay:10.37 W/m2 CLR
17:28 72.8 °F /  22.7 °C 50.8 °F /  10.4 °C 29.94in /  1013.8hPa SSW 6.9mph /  11.1km/h 6.9mph /  11.1km/h 46% 0.00in /  0mm WeatherDisplay:10.37 W/m2 CLR
17:33 72.8 °F /  22.7 °C 51.4 °F /  10.8 °C 29.94in /  1013.8hPa West 6.0mph /  9.7km/h 6.0mph /  9.7km/h 47% 0.00in /  0mm WeatherDisplay:10.37 W/m2 CLR
17:43 72.7 °F /  22.6 °C 51.3 °F /  10.7 °C 29.94in /  1013.8hPa WNW 6.9mph /  11.1km/h 6.9mph /  11.1km/h 47% 0.00in /  0mm WeatherDisplay:10.37 W/m2 CLR
17:48 72.5 °F /  22.5 °C 51.1 °F /  10.6 °C 29.94in /  1013.8hPa WSW 5.0mph /  8km/h 5.0mph /  8km/h 47% 0.00in /  0mm WeatherDisplay:10.37 W/m2 CLR
17:53 72.5 °F /  22.5 °C 51.1 °F /  10.6 °C 29.94in /  1013.8hPa West 4.6mph /  7.4km/h 4.6mph /  7.4km/h 47% 0.00in /  0mm WeatherDisplay:10.37 W/m2 CLR
17:58 72.6 °F /  22.6 °C 51.7 °F /  10.9 °C 29.94in /  1013.8hPa WSW 3.0mph /  4.8km/h 3.0mph /  4.8km/h 48% 0.00in /  0mm WeatherDisplay:10.37 W/m2 CLR
18:03 72.6 °F /  22.6 °C 51.7 °F /  10.9 °C 29.94in /  1013.8hPa West 6.9mph /  11.1km/h 6.9mph /  11.1km/h 48% 0.00in /  0mm WeatherDisplay:10.37 W/m2 CLR
18:08 72.4 °F /  22.4 °C 51.6 °F /  10.9 °C 29.94in /  1013.8hPa West 5.8mph /  9.3km/h 5.8mph /  9.3km/h 48% 0.00in /  0mm WeatherDisplay:10.37 W/m2 CLR
18:13 72.4 °F /  22.4 °C 52.1 °F /  11.2 °C 29.94in /  1013.8hPa West 3.5mph /  5.6km/h 3.5mph /  5.6km/h 49% 0.00in /  0mm WeatherDisplay:10.37 W/m2 CLR
18:18 71.9 °F /  22.2 °C 51.1 °F /  10.6 °C 29.93in /  1013.4hPa North 9.2mph /  14.8km/h 9.2mph /  14.8km/h 48% 0.00in /  0mm WeatherDisplay:10.37 W/m2 CLR
18:23 71.4 °F /  21.9 °C 51.8 °F /  11 °C 29.94in /  1013.8hPa North 3.5mph /  5.6km/h 3.9mph /  6.3km/h 50% 0.00in /  0mm WeatherDisplay:10.37 W/m2 CLR
18:28 70.8 °F /  21.6 °C 51.7 °F /  10.9 °C 29.93in /  1013.4hPa NNE 6.9mph /  11.1km/h 6.9mph /  11.1km/h 51% 0.00in /  0mm WeatherDisplay:10.37 W/m2 CLR
18:33 70.2 °F /  21.2 °C 51.7 °F /  10.9 °C 29.93in /  1013.4hPa North 4.6mph /  7.4km/h 4.6mph /  7.4km/h 52% 0.00in /  0mm WeatherDisplay:10.37 W/m2 CLR
18:38 69.5 °F /  20.8 °C 52.1 °F /  11.2 °C 29.92in /  1013.1hPa North 5.8mph /  9.3km/h 5.8mph /  9.3km/h 54% 0.00in /  0mm WeatherDisplay:10.37 W/m2 CLR
18:43 68.7 °F /  20.4 °C 51.3 °F /  10.7 °C 29.92in /  1013.1hPa North 9.2mph /  14.8km/h 9.2mph /  14.8km/h 54% 0.00in /  0mm WeatherDisplay:10.37 W/m2 CLR
18:48 68.0 °F /  20 °C 51.2 °F /  10.7 °C 29.92in /  1013.1hPa North 10.4mph /  16.7km/h 10.4mph /  16.7km/h 55% 0.00in /  0mm WeatherDisplay:10.37 W/m2 CLR
18:53 67.5 °F /  19.7 °C 51.2 °F /  10.7 °C 29.92in /  1013.1hPa North 8.1mph /  13km/h 8.1mph /  13km/h 56% 0.00in /  0mm WeatherDisplay:10.37 W/m2 CLR
18:58 67.0 °F /  19.4 °C 51.2 °F /  10.7 °C 29.92in /  1013.1hPa NNW 10.4mph /  16.7km/h 10.4mph /  16.7km/h 57% 0.00in /  0mm WeatherDisplay:10.37 W/m2 CLR
19:03 66.7 °F /  19.3 °C 50.9 °F /  10.5 °C 29.93in /  1013.4hPa North 8.0mph /  12.9km/h 8.0mph /  12.9km/h 57% 0.00in /  0mm WeatherDisplay:10.37 W/m2 CLR
19:08 66.4 °F /  19.1 °C 51.6 °F /  10.9 °C 29.93in /  1013.4hPa North 3.5mph /  5.6km/h 3.5mph /  5.6km/h 59% 0.00in /  0mm WeatherDisplay:10.37 W/m2 CLR
19:13 66.1 °F /  18.9 °C 51.3 °F /  10.7 °C 29.93in /  1013.4hPa NNE 3.5mph /  5.6km/h 3.5mph /  5.6km/h 59% 0.00in /  0mm WeatherDisplay:10.37 W/m2 CLR
19:18 65.8 °F /  18.8 °C 51.0 °F /  10.6 °C 29.93in /  1013.4hPa North 11.5mph /  18.5km/h 11.5mph /  18.5km/h 59% 0.00in /  0mm WeatherDisplay:10.37 W/m2 CLR
19:23 65.4 °F /  18.6 °C 51.1 °F /  10.6 °C 29.93in /  1013.4hPa North 5.0mph /  8km/h 5.0mph /  8km/h 60% 0.00in /  0mm WeatherDisplay:10.37 W/m2 CLR
19:28 65.1 °F /  18.4 °C 51.3 °F /  10.7 °C 29.93in /  1013.4hPa North 11.0mph /  17.7km/h 11.0mph /  17.7km/h 61% 0.00in /  0mm WeatherDisplay:10.37 W/m2 CLR
19:33 65.0 °F /  18.3 °C 51.2 °F /  10.7 °C 29.94in /  1013.8hPa NNE 10.4mph /  16.7km/h 10.4mph /  16.7km/h 61% 0.00in /  0mm WeatherDisplay:10.37 W/m2 CLR
19:38 64.9 °F /  18.3 °C 51.1 °F /  10.6 °C 29.94in /  1013.8hPa North 4.6mph /  7.4km/h 4.6mph /  7.4km/h 61% 0.00in /  0mm WeatherDisplay:10.37 W/m2 CLR
19:43 64.7 °F /  18.2 °C 50.9 °F /  10.5 °C 29.95in /  1014.1hPa WNW 5.8mph /  9.3km/h 5.8mph /  9.3km/h 61% 0.00in /  0mm WeatherDisplay:10.37 W/m2 CLR
19:48 64.6 °F /  18.1 °C 51.2 °F /  10.7 °C 29.95in /  1014.1hPa NNE 3.5mph /  5.6km/h 3.5mph /  5.6km/h 62% 0.00in /  0mm WeatherDisplay:10.37 W/m2 CLR
19:53 64.4 °F /  18 °C 51.1 °F /  10.6 °C 29.85in /  1010.7hPa North 4.0mph /  6.4km/h 4.0mph /  6.4km/h 62% 0.00in /  0mm WeatherDisplay:10.37 W/m2 CLR
19:58 64.2 °F /  17.9 °C 51.3 °F /  10.7 °C 29.85in /  1010.7hPa North 5.8mph /  9.3km/h 5.8mph /  9.3km/h 63% 0.00in /  0mm WeatherDisplay:10.37 W/m2 CLR
20:03 64.0 °F /  17.8 °C 50.7 °F /  10.4 °C 29.85in /  1010.7hPa NNE 9.2mph /  14.8km/h 9.2mph /  14.8km/h 62% 0.00in /  0mm WeatherDisplay:10.37 W/m2 SCT
20:08 63.8 °F /  17.7 °C 50.9 °F /  10.5 °C 29.85in /  1010.7hPa North 5.8mph /  9.3km/h 5.8mph /  9.3km/h 63% 0.00in /  0mm WeatherDisplay:10.37 W/m2 SCT
20:13 63.4 °F /  17.4 °C 51.0 °F /  10.6 °C 29.85in /  1010.7hPa NNE 5.8mph /  9.3km/h 5.8mph /  9.3km/h 64% 0.00in /  0mm WeatherDisplay:10.37 W/m2 SCT
20:18 63.1 °F /  17.3 °C 50.7 °F /  10.4 °C 29.86in /  1011.1hPa NNE 3.5mph /  5.6km/h 3.5mph /  5.6km/h 64% 0.00in /  0mm WeatherDisplay:10.37 W/m2 SCT
20:23 62.9 °F /  17.2 °C 50.9 °F /  10.5 °C 29.87in /  1011.4hPa East 2.3mph /  3.7km/h 2.3mph /  3.7km/h 65% 0.00in /  0mm WeatherDisplay:10.37 W/m2 SCT
20:28 62.7 °F /  17.1 °C 50.7 °F /  10.4 °C 29.87in /  1011.4hPa NNE 5.0mph /  8km/h 5.0mph /  8km/h 65% 0.00in /  0mm WeatherDisplay:10.37 W/m2 SCT
20:33 62.5 °F /  16.9 °C 50.5 °F /  10.3 °C 29.88in /  1011.7hPa NNE 3.5mph /  5.6km/h 3.5mph /  5.6km/h 65% 0.00in /  0mm WeatherDisplay:10.37 W/m2 SCT
20:38 62.3 °F /  16.8 °C 50.8 °F /  10.4 °C 29.88in /  1011.7hPa NNE 3.5mph /  5.6km/h 3.5mph /  5.6km/h 66% 0.00in /  0mm WeatherDisplay:10.37 W/m2 SCT
20:43 62.2 °F /  16.8 °C 51.1 °F /  10.6 °C 29.89in /  1012.1hPa Calm     67% 0.00in /  0mm WeatherDisplay:10.37 W/m2 SCT
20:48 62.0 °F /  16.7 °C 50.5 °F /  10.3 °C 29.89in /  1012.1hPa NE 5.8mph /  9.3km/h 5.8mph /  9.3km/h 66% 0.00in /  0mm WeatherDisplay:10.37 W/m2 SCT
20:53 62.0 °F /  16.7 °C 50.9 °F /  10.5 °C 29.89in /  1012.1hPa NNE 3.5mph /  5.6km/h 3.5mph /  5.6km/h 67% 0.00in /  0mm WeatherDisplay:10.37 W/m2 SCT
20:58 61.9 °F /  16.6 °C 50.8 °F /  10.4 °C 29.89in /  1012.1hPa NNW 3.5mph /  5.6km/h 3.5mph /  5.6km/h 67% 0.00in /  0mm WeatherDisplay:10.37 W/m2 SCT
21:03 61.8 °F /  16.6 °C 50.7 °F /  10.4 °C 29.90in /  1012.4hPa NNE 3.5mph /  5.6km/h 3.5mph /  5.6km/h 67% 0.00in /  0mm WeatherDisplay:10.37 W/m2 BKN
21:08 61.6 °F /  16.4 °C 50.9 °F /  10.5 °C 29.90in /  1012.4hPa NNE 3.5mph /  5.6km/h 3.5mph /  5.6km/h 68% 0.00in /  0mm WeatherDisplay:10.37 W/m2 BKN
21:13 61.4 °F /  16.3 °C 50.7 °F /  10.4 °C 29.90in /  1012.4hPa North 5.0mph /  8km/h 5.0mph /  8km/h 68% 0.00in /  0mm WeatherDisplay:10.37 W/m2 BKN
21:18 61.1 °F /  16.2 °C 50.8 °F /  10.4 °C 29.90in /  1012.4hPa NNE 9.0mph /  14.5km/h 9.0mph /  14.5km/h 69% 0.00in /  0mm WeatherDisplay:10.37 W/m2 BKN
21:23 60.9 °F /  16.1 °C 50.6 °F /  10.3 °C 29.90in /  1012.4hPa NNE 6.9mph /  11.1km/h 6.9mph /  11.1km/h 69% 0.00in /  0mm WeatherDisplay:10.37 W/m2 OVC
21:28 60.6 °F /  15.9 °C 50.7 °F /  10.4 °C 29.90in /  1012.4hPa North 12.7mph /  20.4km/h 12.7mph /  20.4km/h 70% 0.00in /  0mm WeatherDisplay:10.37 W/m2 OVC
21:33 60.1 °F /  15.6 °C 50.6 °F /  10.3 °C 29.90in /  1012.4hPa North 12.7mph /  20.4km/h 12.7mph /  20.4km/h 71% 0.00in /  0mm WeatherDisplay:10.37 W/m2 OVC
21:38 59.7 °F /  15.4 °C 50.6 °F /  10.3 °C 29.91in /  1012.8hPa North 11.5mph /  18.5km/h 11.5mph /  18.5km/h 72% 0.00in /  0mm WeatherDisplay:10.37 W/m2 OVC
21:43 59.4 °F /  15.2 °C 50.0 °F /  10 °C 29.91in /  1012.8hPa North 10.4mph /  16.7km/h 10.4mph /  16.7km/h 71% 0.00in /  0mm WeatherDisplay:10.37 W/m2 BKN
21:48 59.3 °F /  15.2 °C 50.2 °F /  10.1 °C 29.91in /  1012.8hPa NNE 9.0mph /  14.5km/h 9.0mph /  14.5km/h 72% 0.00in /  0mm WeatherDisplay:10.37 W/m2 BKN
21:53 58.9 °F /  14.9 °C 49.5 °F /  9.7 °C 29.91in /  1012.8hPa NNE 12.7mph /  20.4km/h 12.7mph /  20.4km/h 71% 0.00in /  0mm WeatherDisplay:10.37 W/m2 BKN
21:58 58.6 °F /  14.8 °C 48.8 °F /  9.3 °C 29.92in /  1013.1hPa North 11.5mph /  18.5km/h 11.5mph /  18.5km/h 70% 0.00in /  0mm WeatherDisplay:10.37 W/m2 BKN
22:03 58.3 °F /  14.6 °C 48.5 °F /  9.2 °C 29.92in /  1013.1hPa NNE 12.0mph /  19.3km/h 12.0mph /  19.3km/h 70% 0.00in /  0mm WeatherDisplay:10.37 W/m2 OVC
22:08 58.1 °F /  14.5 °C 48.7 °F /  9.3 °C 29.92in /  1013.1hPa NW 10.0mph /  16.1km/h 10.0mph /  16.1km/h 71% 0.00in /  0mm WeatherDisplay:10.37 W/m2 OVC
22:13 57.7 °F /  14.3 °C 47.2 °F /  8.4 °C 29.92in /  1013.1hPa North 11.5mph /  18.5km/h 11.5mph /  18.5km/h 68% 0.00in /  0mm WeatherDisplay:10.37 W/m2 OVC
22:18 57.3 °F /  14.1 °C 46.4 °F /  8 °C 29.92in /  1013.1hPa WNW 4.6mph /  7.4km/h 4.6mph /  7.4km/h 67% 0.00in /  0mm WeatherDisplay:10.37 W/m2 OVC
22:23 57.0 °F /  13.9 °C 44.9 °F /  7.2 °C 29.92in /  1013.1hPa West 11.5mph /  18.5km/h 11.5mph /  18.5km/h 64% 0.00in /  0mm WeatherDisplay:10.37 W/m2 OVC
22:28 56.8 °F /  13.8 °C 44.7 °F /  7.1 °C 29.92in /  1013.1hPa North 11.5mph /  18.5km/h 11.5mph /  18.5km/h 64% 0.00in /  0mm WeatherDisplay:10.37 W/m2 OVC
22:33 56.5 °F /  13.6 °C 44.8 °F /  7.1 °C 29.92in /  1013.1hPa North 8.1mph /  13km/h 8.1mph /  13km/h 65% 0.00in /  0mm WeatherDisplay:10.37 W/m2 OVC
22:38 56.3 °F /  13.5 °C 45.4 °F /  7.4 °C 29.92in /  1013.1hPa NNE 4.0mph /  6.4km/h 4.0mph /  6.4km/h 67% 0.00in /  0mm WeatherDisplay:10.37 W/m2 OVC
22:43 56.1 °F /  13.4 °C 44.5 °F /  6.9 °C 29.92in /  1013.1hPa NNE 3.5mph /  5.6km/h 3.5mph /  5.6km/h 65% 0.00in /  0mm WeatherDisplay:10.37 W/m2 OVC
22:48 55.9 °F /  13.3 °C 43.9 °F /  6.6 °C 29.92in /  1013.1hPa North 8.1mph /  13km/h 8.1mph /  13km/h 64% 0.00in /  0mm WeatherDisplay:10.37 W/m2 OVC
22:53 55.7 °F /  13.2 °C 43.7 °F /  6.5 °C 29.92in /  1013.1hPa North 3.5mph /  5.6km/h 3.5mph /  5.6km/h 64% 0.00in /  0mm WeatherDisplay:10.37 W/m2 OVC
22:58 55.5 °F /  13.1 °C 43.1 °F /  6.2 °C 29.91in /  1012.8hPa NNW 3.5mph /  5.6km/h 3.5mph /  5.6km/h 63% 0.00in /  0mm WeatherDisplay:10.37 W/m2 OVC
23:03 55.3 °F /  12.9 °C 42.9 °F /  6.1 °C 29.91in /  1012.8hPa NW 3.5mph /  5.6km/h 3.5mph /  5.6km/h 63% 0.00in /  0mm WeatherDisplay:10.37 W/m2 BKN
23:08 55.1 °F /  12.8 °C 42.7 °F /  5.9 °C 29.92in /  1013.1hPa WNW 2.3mph /  3.7km/h 2.3mph /  3.7km/h 63% 0.00in /  0mm WeatherDisplay:10.37 W/m2 BKN
23:13 54.9 °F /  12.7 °C 42.1 °F /  5.6 °C 29.92in /  1013.1hPa West 3.5mph /  5.6km/h 3.5mph /  5.6km/h 62% 0.00in /  0mm WeatherDisplay:10.37 W/m2 BKN
23:18 54.7 °F /  12.6 °C 41.5 °F /  5.3 °C 29.93in /  1013.4hPa West 3.5mph /  5.6km/h 3.5mph /  5.6km/h 61% 0.00in /  0mm WeatherDisplay:10.37 W/m2 BKN
23:23 54.5 °F /  12.5 °C 41.7 °F /  5.4 °C 29.93in /  1013.4hPa West 3.5mph /  5.6km/h 3.5mph /  5.6km/h 62% 0.00in /  0mm WeatherDisplay:10.37 W/m2 BKN
23:28 54.3 °F /  12.4 °C 41.5 °F /  5.3 °C 29.93in /  1013.4hPa West 2.3mph /  3.7km/h 2.3mph /  3.7km/h 62% 0.00in /  0mm WeatherDisplay:10.37 W/m2 BKN
23:33 54.1 °F /  12.3 °C 40.5 °F /  4.7 °C 29.93in /  1013.4hPa West 3.5mph /  5.6km/h 3.5mph /  5.6km/h 60% 0.00in /  0mm WeatherDisplay:10.37 W/m2 BKN
23:38 53.9 °F /  12.2 °C 40.7 °F /  4.8 °C 29.93in /  1013.4hPa West 2.3mph /  3.7km/h 2.3mph /  3.7km/h 61% 0.00in /  0mm WeatherDisplay:10.37 W/m2 BKN
23:43 53.7 °F /  12.1 °C 40.5 °F /  4.7 °C 29.93in /  1013.4hPa West 2.3mph /  3.7km/h 2.3mph /  3.7km/h 61% 0.00in /  0mm WeatherDisplay:10.37 W/m2 SCT
23:48 53.5 °F /  11.9 °C 40.3 °F /  4.6 °C 29.93in /  1013.4hPa West 1.2mph /  1.9km/h 1.2mph /  1.9km/h 61% 0.00in /  0mm WeatherDisplay:10.37 W/m2 SCT
23:53 53.3 °F /  11.8 °C 40.1 °F /  4.5 °C 29.93in /  1013.4hPa Calm     61% 0.00in /  0mm WeatherDisplay:10.37 W/m2 SCT
23:58 53.1 °F /  11.7 °C 40.4 °F /  4.7 °C 29.93in /  1013.4hPa WNW 2.3mph /  3.7km/h 2.3mph /  3.7km/h 62% 0.00in /  0mm WeatherDisplay:10.37 W/m2 SCT
Smyth Weather
Compliments of Weather Underground - 3 mb